SAS64U ESSA-EBBR

Flight info

Callsign SAS64U
Flight time N/A
Altitude 38000
Route PETEV N872 ELPAX DCT ATRIB DCT TNO DCT ALS N872 LILSI Z310 WOODY
Aircraft A20N/M-SDE3FGIJ1RWXY/ALB1

Departure

Time 2026-05-05 19:23
Airport Stockholm-Arlanda Airport (ESSA)

Arrival

Time N/A
Airport Brussels Airport (EBBR)
Time Latitude Longitude Altitude Speed Heading
2026-05-05 18:44 59.65040 17.92585 138 ft 0 kts 39°
2026-05-05 19:13 59.65035 17.92577 137 ft 3 kts 39°
2026-05-05 19:13 59.65021 17.92555 137 ft 3 kts 39°
2026-05-05 19:14 59.65008 17.92533 137 ft 3 kts 39°
2026-05-05 19:14 59.64994 17.92512 137 ft 2 kts
2026-05-05 19:14 59.64979 17.92523 137 ft 2 kts 310°
2026-05-05 19:14 59.64968 17.92550 137 ft 2 kts 270°
2026-05-05 19:15 59.64968 17.92558 137 ft 0 kts 269°
2026-05-05 19:17 59.64968 17.92544 137 ft 2 kts 269°
2026-05-05 19:18 59.64968 17.92497 137 ft 4 kts 269°
2026-05-05 19:18 59.64967 17.92422 137 ft 7 kts 269°
2026-05-05 19:18 59.64965 17.92318 138 ft 9 kts 269°
2026-05-05 19:18 59.64972 17.92189 138 ft 10 kts 296°
2026-05-05 19:19 59.65041 17.92160 138 ft 12 kts 10°
2026-05-05 19:19 59.65132 17.92192 138 ft 15 kts 10°
2026-05-05 19:19 59.65240 17.92231 138 ft 17 kts 10°
2026-05-05 19:19 59.65364 17.92276 138 ft 19 kts 10°
2026-05-05 19:20 59.65501 17.92326 138 ft 21 kts 11°
2026-05-05 19:20 59.65636 17.92376 138 ft 20 kts 11°
2026-05-05 19:20 59.65779 17.92429 138 ft 22 kts 10°
2026-05-05 19:20 59.65924 17.92479 138 ft 21 kts 10°
2026-05-05 19:21 59.66043 17.92521 138 ft 16 kts 10°
2026-05-05 19:21 59.66161 17.92562 138 ft 18 kts 11°
2026-05-05 19:21 59.66284 17.92608 138 ft 18 kts 11°
2026-05-05 19:21 59.66417 17.92658 138 ft 20 kts 11°
2026-05-05 19:22 59.66553 17.92597 138 ft 21 kts 338°
2026-05-05 19:22 59.66601 17.92394 141 ft 19 kts 232°
2026-05-05 19:22 59.66454 17.92311 142 ft 39 kts 190°
2026-05-05 19:22 59.65956 17.92133 145 ft 103 kts 190°
2026-05-05 19:23 59.65080 17.91818 142 ft 151 kts 190°
2026-05-05 19:23 59.63929 17.91393 287 ft 178 kts 191°
2026-05-05 19:23 59.62690 17.90871 850 ft 183 kts 191°
2026-05-05 19:23 59.61444 17.89991 1227 ft 199 kts 220°
2026-05-05 19:24 59.60549 17.87777 1502 ft 218 kts 239°
2026-05-05 19:24 59.59748 17.85207 2295 ft 219 kts 241°
2026-05-05 19:24 59.58962 17.82627 3172 ft 219 kts 242°
2026-05-05 19:24 59.58197 17.79966 3779 ft 232 kts 244°
2026-05-05 19:25 59.57427 17.77006 4337 ft 248 kts 246°
2026-05-05 19:25 59.56599 17.73961 4876 ft 256 kts 238°
2026-05-05 19:25 59.55427 17.71305 4995 ft 257 kts 230°
2026-05-05 19:25 59.54191 17.68742 5009 ft 258 kts 229°
2026-05-05 19:26 59.52963 17.66225 5015 ft 259 kts 229°
2026-05-05 19:26 59.51713 17.63675 5015 ft 259 kts 229°
2026-05-05 19:26 59.50460 17.61128 5015 ft 259 kts 229°
2026-05-05 19:26 59.49194 17.58554 5444 ft 264 kts 229°
2026-05-05 19:27 59.47923 17.55969 6419 ft 263 kts 229°
2026-05-05 19:27 59.46645 17.53368 7293 ft 265 kts 229°
2026-05-05 19:27 59.45357 17.50750 8153 ft 267 kts 229°
2026-05-05 19:27 59.44061 17.48116 9008 ft 269 kts 229°
2026-05-05 19:28 59.42754 17.45460 9843 ft 272 kts 230°
2026-05-05 19:28 59.41412 17.42729 10285 ft 287 kts 230°
2026-05-05 19:28 59.39973 17.39796 10462 ft 310 kts 230°
2026-05-05 19:28 59.38425 17.36647 10685 ft 328 kts 229°
2026-05-05 19:29 59.36814 17.33396 11290 ft 334 kts 229°
2026-05-05 19:29 59.35188 17.30137 12028 ft 335 kts 230°
2026-05-05 19:29 59.33551 17.26860 12781 ft 336 kts 230°
2026-05-05 19:29 59.31912 17.23577 13524 ft 337 kts 230°
2026-05-05 19:30 59.30277 17.20302 14253 ft 335 kts 231°
2026-05-05 19:30 59.28653 17.17049 14982 ft 333 kts 231°
2026-05-05 19:30 59.27060 17.13852 15657 ft 332 kts 231°
2026-05-05 19:30 59.25421 17.10577 16345 ft 332 kts 231°
2026-05-05 19:31 59.23825 17.07397 17022 ft 332 kts 231°
2026-05-05 19:31 59.22204 17.04173 17732 ft 333 kts 231°
2026-05-05 19:31 59.20562 17.00974 18400 ft 336 kts 228°
2026-05-05 19:31 59.18768 16.98020 18980 ft 339 kts 226°
2026-05-05 19:32 59.16949 16.95063 19539 ft 342 kts 226°
2026-05-05 19:32 59.15113 16.92083 20077 ft 345 kts 226°
2026-05-05 19:32 59.13264 16.89079 20592 ft 347 kts 226°
2026-05-05 19:32 59.11399 16.86053 21072 ft 350 kts 226°
2026-05-05 19:33 59.09522 16.83011 21578 ft 353 kts 227°
2026-05-05 19:33 59.08271 16.80984 21899 ft 354 kts 227°
2026-05-05 19:33 59.06370 16.77903 22253 ft 358 kts 226°
2026-05-05 19:33 59.04443 16.74789 22662 ft 361 kts 226°
2026-05-05 19:34 59.02500 16.71664 23089 ft 364 kts 226°
2026-05-05 19:34 59.00540 16.68523 23509 ft 367 kts 226°
2026-05-05 19:34 58.98566 16.65362 23848 ft 369 kts 226°
2026-05-05 19:35 58.94591 16.58996 24553 ft 373 kts 226°
2026-05-05 19:35 58.92580 16.55788 24882 ft 375 kts 226°
2026-05-05 19:35 58.90564 16.52577 25215 ft 377 kts 226°
2026-05-05 19:35 58.88535 16.49339 25550 ft 379 kts 226°
2026-05-05 19:36 58.86500 16.46096 25881 ft 381 kts 226°
2026-05-05 19:36 58.84444 16.42830 26221 ft 383 kts 226°
2026-05-05 19:36 58.82377 16.39554 26462 ft 385 kts 225°
2026-05-05 19:36 58.80300 16.36268 26774 ft 388 kts 225°
2026-05-05 19:37 58.78204 16.32957 27097 ft 390 kts 225°
2026-05-05 19:37 58.76095 16.29641 27408 ft 392 kts 225°
2026-05-05 19:37 58.73978 16.26312 27714 ft 394 kts 225°
2026-05-05 19:37 58.71853 16.22970 28018 ft 396 kts 225°
2026-05-05 19:38 58.69716 16.19611 28318 ft 397 kts 225°
2026-05-05 19:38 58.67568 16.16238 28608 ft 399 kts 225°
2026-05-05 19:38 58.65412 16.12857 28875 ft 401 kts 225°
2026-05-05 19:38 58.63244 16.09468 29139 ft 403 kts 225°
2026-05-05 19:39 58.61061 16.06061 29389 ft 404 kts 225°
2026-05-05 19:39 58.58904 16.02700 29619 ft 405 kts 225°
2026-05-05 19:39 58.56708 15.99290 29942 ft 405 kts 225°
2026-05-05 19:39 58.54519 15.95901 30242 ft 404 kts 225°
2026-05-05 19:40 58.52328 15.92510 30560 ft 404 kts 225°
2026-05-05 19:40 58.50147 15.89136 30856 ft 403 kts 225°
2026-05-05 19:40 58.47965 15.85764 31157 ft 402 kts 225°
2026-05-05 19:40 58.45790 15.82411 31459 ft 402 kts 225°
2026-05-05 19:41 58.43615 15.79072 31760 ft 401 kts 224°
2026-05-05 19:41 58.41437 15.75731 32068 ft 400 kts 225°
2026-05-05 19:41 58.39270 15.72405 32377 ft 400 kts 224°
2026-05-05 19:41 58.37101 15.69079 32701 ft 399 kts 225°
2026-05-05 19:42 58.34935 15.65765 32930 ft 399 kts 224°
2026-05-05 19:42 58.32770 15.62459 33221 ft 399 kts 224°
2026-05-05 19:42 58.30635 15.59200 33518 ft 398 kts 224°
2026-05-05 19:42 58.28471 15.55904 33829 ft 398 kts 224°
2026-05-05 19:43 58.26314 15.52621 34106 ft 397 kts 224°
2026-05-05 19:43 58.24155 15.49340 34347 ft 398 kts 224°
2026-05-05 19:43 58.21995 15.46065 34574 ft 398 kts 224°
2026-05-05 19:43 58.19825 15.42783 34798 ft 399 kts 224°
2026-05-05 19:44 58.17647 15.39495 35014 ft 400 kts 224°
2026-05-05 19:44 58.15468 15.36207 35213 ft 401 kts 224°
2026-05-05 19:44 58.13280 15.32914 35425 ft 402 kts 224°
2026-05-05 19:44 58.11086 15.29621 35611 ft 403 kts 223°
2026-05-05 19:45 58.08893 15.26306 35791 ft 404 kts 224°
2026-05-05 19:45 58.06773 15.22839 35978 ft 403 kts 226°
2026-05-05 19:45 58.04719 15.19241 36180 ft 403 kts 227°
2026-05-05 19:45 58.02691 15.15574 36371 ft 404 kts 228°
2026-05-05 19:46 58.00671 15.11896 36558 ft 404 kts 228°
2026-05-05 19:46 57.98632 15.08222 36747 ft 405 kts 227°
2026-05-05 19:46 57.96579 15.04580 36933 ft 406 kts 227°
2026-05-05 19:46 57.94510 15.00964 37111 ft 407 kts 226°
2026-05-05 19:47 57.92422 14.97350 37287 ft 407 kts 226°
2026-05-05 19:47 57.90331 14.93746 37454 ft 408 kts 226°
2026-05-05 19:47 57.88239 14.90140 37625 ft 409 kts 226°
2026-05-05 19:47 57.86144 14.86522 37792 ft 409 kts 226°
2026-05-05 19:48 57.84050 14.82903 37931 ft 410 kts 226°
2026-05-05 19:48 57.79927 14.75802 37946 ft 410 kts 226°
2026-05-05 19:49 57.75715 14.68576 37958 ft 411 kts 226°
2026-05-05 19:49 57.71499 14.61364 37934 ft 411 kts 226°
2026-05-05 19:50 57.67272 14.54166 37947 ft 411 kts 226°
2026-05-05 19:50 57.63045 14.46990 37926 ft 411 kts 226°
2026-05-05 19:51 57.58839 14.39869 37927 ft 411 kts 226°
2026-05-05 19:51 57.54596 14.32709 37935 ft 411 kts 226°
2026-05-05 19:52 57.50348 14.25561 37936 ft 411 kts 226°
2026-05-05 19:52 57.46099 14.18426 37935 ft 412 kts 226°
2026-05-05 19:53 57.41841 14.11313 37933 ft 412 kts 226°
2026-05-05 19:53 57.37581 14.04225 37942 ft 412 kts 225°
2026-05-05 19:54 57.33317 13.97146 37952 ft 412 kts 225°
2026-05-05 19:54 57.29047 13.90081 37961 ft 412 kts 225°
2026-05-05 19:55 57.24781 13.83044 37967 ft 412 kts 225°
2026-05-05 19:55 57.20511 13.76009 37979 ft 412 kts 225°
2026-05-05 19:56 57.16256 13.69032 37940 ft 412 kts 225°
2026-05-05 19:56 57.11965 13.62035 37950 ft 412 kts 225°
2026-05-05 19:57 57.07670 13.55042 37961 ft 412 kts 225°
2026-05-05 19:57 57.03371 13.48054 37964 ft 412 kts 225°
2026-05-05 19:58 56.99073 13.41089 37966 ft 412 kts 225°
2026-05-05 19:58 56.94757 13.34135 37968 ft 412 kts 225°
2026-05-05 19:59 56.90445 13.27211 37942 ft 412 kts 225°
2026-05-05 19:59 56.86129 13.20286 37957 ft 412 kts 225°
2026-05-05 20:00 56.81838 13.13426 37963 ft 412 kts 225°
2026-05-05 20:00 56.77512 13.06545 37977 ft 412 kts 224°
2026-05-05 20:01 56.73189 12.99683 37986 ft 412 kts 224°
2026-05-05 20:01 56.68856 12.92821 37959 ft 412 kts 224°
2026-05-05 20:02 56.64514 12.85973 37970 ft 413 kts 224°
2026-05-05 20:02 56.60162 12.79137 37975 ft 413 kts 224°
2026-05-05 20:03 56.55840 12.72372 37970 ft 413 kts 224°
2026-05-05 20:03 56.51482 12.65553 37972 ft 414 kts 224°
2026-05-05 20:04 56.47121 12.58764 37944 ft 414 kts 224°
2026-05-05 20:04 56.42754 12.51986 37964 ft 414 kts 224°
2026-05-05 20:05 56.38469 12.45037 37971 ft 413 kts 226°
2026-05-05 20:05 56.34299 12.37877 37970 ft 413 kts 227°
2026-05-05 20:06 56.30133 12.30751 37969 ft 413 kts 226°
2026-05-05 20:06 56.25925 12.23682 37969 ft 413 kts 226°
2026-05-05 20:07 56.21710 12.16646 37944 ft 413 kts 225°
2026-05-05 20:07 56.17518 12.09661 37956 ft 413 kts 226°
2026-05-05 20:08 56.13301 12.02644 37980 ft 414 kts 226°
2026-05-05 20:08 56.09069 11.95648 37976 ft 413 kts 225°
2026-05-05 20:09 56.04836 11.88659 37967 ft 413 kts 225°
2026-05-05 20:09 56.00603 11.81698 37943 ft 413 kts 225°
2026-05-05 20:10 55.96364 11.74735 37957 ft 413 kts 225°
2026-05-05 20:10 55.92159 11.67846 37960 ft 413 kts 225°
2026-05-05 20:11 55.87909 11.60926 37960 ft 413 kts 225°
2026-05-05 20:11 55.83657 11.54032 37965 ft 413 kts 225°
2026-05-05 20:12 55.79408 11.47154 37965 ft 413 kts 225°
2026-05-05 20:12 55.75185 11.40246 37946 ft 412 kts 226°
2026-05-05 20:13 55.71089 11.33229 37949 ft 411 kts 227°
2026-05-05 20:13 55.66997 11.26134 37955 ft 411 kts 227°
2026-05-05 20:14 55.62883 11.19077 37968 ft 411 kts 226°
2026-05-05 20:14 55.58750 11.12076 37961 ft 412 kts 226°
2026-05-05 20:15 55.54611 11.05078 37959 ft 412 kts 226°
2026-05-05 20:15 55.50478 10.98101 37963 ft 412 kts 226°
2026-05-05 20:16 55.46359 10.91176 37962 ft 412 kts 226°
2026-05-05 20:16 55.42204 10.84212 37970 ft 412 kts 226°
2026-05-05 20:17 55.38038 10.77256 37965 ft 412 kts 226°
2026-05-05 20:17 55.33869 10.70311 37971 ft 412 kts 226°
2026-05-05 20:18 55.29698 10.63381 37952 ft 412 kts 226°
2026-05-05 20:18 55.25535 10.56487 37960 ft 412 kts 226°
2026-05-05 20:19 55.21388 10.49642 37951 ft 411 kts 225°
2026-05-05 20:19 55.17212 10.42779 37962 ft 411 kts 225°
2026-05-05 20:20 55.13722 10.37041 37944 ft 411 kts 225°
2026-05-05 20:20 55.09553 10.30202 37949 ft 411 kts 225°
2026-05-05 20:21 55.05374 10.23374 37931 ft 411 kts 225°
2026-05-05 20:21 55.01209 10.16604 37935 ft 412 kts 225°
2026-05-05 20:22 54.97014 10.09804 37943 ft 412 kts 225°
2026-05-05 20:22 54.92813 10.03009 37946 ft 412 kts 225°
2026-05-05 20:23 54.88827 9.95863 37953 ft 410 kts 231°
2026-05-05 20:23 54.85120 9.88312 37916 ft 411 kts 231°
2026-05-05 20:24 54.81666 9.80438 37911 ft 410 kts 236°
2026-05-05 20:24 54.78387 9.72403 37925 ft 411 kts 236°
2026-05-05 20:25 54.75061 9.64323 37924 ft 412 kts 236°
2026-05-05 20:25 54.71731 9.56259 37925 ft 412 kts 236°
2026-05-05 20:26 54.68400 9.48193 37927 ft 412 kts 236°
2026-05-05 20:26 54.65053 9.40142 37928 ft 412 kts 236°
2026-05-05 20:27 54.61710 9.32097 37912 ft 412 kts 235°
2026-05-05 20:27 54.58389 9.24106 37919 ft 413 kts 235°
2026-05-05 20:28 54.55030 9.16084 37926 ft 413 kts 235°
2026-05-05 20:28 54.51657 9.08076 37935 ft 413 kts 235°
2026-05-05 20:29 54.48275 9.00065 37933 ft 413 kts 235°
2026-05-05 20:29 54.44894 8.92072 37933 ft 413 kts 235°
2026-05-05 20:30 54.41507 8.84083 37918 ft 413 kts 234°
2026-05-05 20:30 54.38115 8.76116 37932 ft 414 kts 234°
2026-05-05 20:31 54.34716 8.68146 37934 ft 414 kts 234°
2026-05-05 20:31 54.31312 8.60200 37939 ft 414 kts 234°
2026-05-05 20:32 54.29605 8.56226 37939 ft 414 kts 234°